Dewpoint
63 63 63 64 65 65 65 65 66 66 66 66 66 66 67 67 67 67 67 66 66 66 66 66 65 65 65 65 66 65 65 64 63 63 61 61 62 62 65 64 65 65 63 62 61 61 58 58 59 61 61 61 62 63 63 65 64 65 66 66 66 67 67
63 63 64 64 63 64 64 64 64 65 65 66 66 66 66 67 67 67 67 67 67 66 67 66 66 66 65 65 66 65 65 64 64 63 62 62 61 62 63 63 64 64 63 62 62 62 60 57 59 57 58 61 62 62 62 63 63 65 66 66 66 67 66
64 63 63 62 62 62 62 63 63 64 64 65 66 66 66 66 67 67 67 66 66 67 67 67 66 66 66 65 66 65 65 64 64 65 63 62 63 62 63 63 63 62 63 62 62 61 61 60 59 59 60 60 60 62 63 64 63 64 64 66 67 66 66
63 63 63 63 62 62 62 62 62 63 63 64 65 65 65 65 66 67 67 66 67 67 67 67 66 66 66 66 65 65 65 64 63 64 64 63 63 63 62 63 63 63 62 61 61 61 62 60 59 60 61 60 60 61 62 63 64 63 63 65 66 66 66
63 63 64 64 63 63 63 62 62 62 62 63 64 64 65 65 65 66 66 67 66 66 66 67 66 66 66 65 65 65 65 64 64 64 63 63 63 63 63 63 63 63 62 62 61 62 61 61 61 60 60 60 61 60 61 63 64 63 64 63 65 66 67
63 63 63 64 64 64 63 63 62 62 63 62 63 63 64 64 65 65 65 66 66 66 66 66 66 66 65 65 65 65 65 64 64 64 63 63 63 63 64 64 64 63 63 63 63 62 62 62 62 61 61 61 61 61 61 61 62 62 62 63 63 65 65
64 64 64 64 64 64 64 63 63 63 63 63 63 63 63 64 64 65 65 65 66 66 66 67 66 66 65 64 64 64 65 65 64 64 64 64 64 64 64 64 63 64 64 64 64 63 62 62 62 61 61 60 60 60 60 60 61 61 63 62 63 65 65
64 64 64 64 64 64 63 63 63 63 63 63 63 63 64 63 64 64 64 65 66 66 67 67 67 66 66 65 65 64 64 65 65 64 64 64 64 63 64 64 64 63 64 64 64 64 64 64 62 61 61 60 60 59 60 59 59 60 61 62 65 67 66
65 65 65 65 65 64 64 64 63 63 63 64 64 64 63 64 63 64 64 65 65 66 66 66 66 66 66 65 65 64 64 65 64 64 64 64 64 64 64 64 64 64 64 64 64 64 64 64 64 64 63 62 59 58 59 59 57 59 59 62 66 65 65
65 65 65 64 65 65 64 64 63 63 63 63 64 64 64 64 63 63 63 64 64 65 66 66 66 66 66 66 65 64 64 64 65 64 64 64 64 64 64 63 64 64 64 64 64 64 64 64 64 64 64 63 62 59 58 57 58 58 60 63 61 65 64
65 65 65 65 65 64 64 63 62 62 62 63 65 65 64 64 63 65 63 63 64 65 65 66 66 66 65 65 65 65 65 64 65 64 64 64 64 64 64 63 64 64 64 64 64 64 64 64 64 64 63 63 64 62 61 58 58 60 60 61 61 61 65
65 65 65 65 65 65 64 63 63 63 62 63 65 65 64 64 63 64 64 63 64 64 64 65 65 65 65 65 65 65 65 65 64 64 64 64 64 64 64 64 64 64 63 63 63 63 63 63 63 63 63 63 64 63 62 61 57 59 61 61 62 62 63
65 65 65 65 65 65 64 63 63 62 62 63 64 64 64 64 64 64 64 64 64 64 64 64 65 65 64 64 64 64 64 64 64 64 64 65 64 64 64 64 63 63 63 62 62 63 63 63 63 63 62 63 63 63 63 60 58 59 62 61 62 62 63
65 66 65 65 65 65 65 64 63 63 62 63 64 64 64 64 64 64 64 64 64 64 64 64 64 64 64 64 64 64 63 64 64 64 64 64 64 64 64 63 63 63 63 62 63 63 63 63 63 63 62 62 62 62 62 60 59 59 61 62 61 62 62
65 65 65 65 63 63 64 64 63 62 62 63 63 63 63 63 63 63 63 63 63 63 63 63 64 64 64 64 63 64 63 63 63 63 63 63 63 63 63 62 63 63 63 63 63 63 63 62 63 62 62 62 62 61 61 61 60 59 58 60 61 62 62
65 65 65 64 62 62 63 63 63 63 62 63 63 63 63 63 63 62 62 63 63 63 63 63 63 64 64 64 63 63 64 63 63 63 61 60 60 60 60 60 61 62 63 63 62 62 62 62 62 62 62 61 61 60 60 61 61 59 59 59 61 61 61
64 64 64 64 62 63 63 63 63 63 63 63 62 62 62 62 62 62 62 62 63 63 63 63 63 63 63 64 63 63 63 63 61 60 59 59 58 60 60 60 60 60 61 62 61 61 62 61 61 61 61 60 60 60 60 61 62 61 60 58 59 60 61
64 64 64 64 63 63 63 63 63 63 62 62 62 62 62 62 62 62 62 62 63 63 63 63 63 63 63 63 63 62 62 62 61 61 60 60 60 60 60 60 60 60 61 61 59 60 60 61 61 61 61 60 59 60 60 60 61 61 60 58 57 59 60
64 64 64 64 63 63 63 63 63 63 62 62 62 62 61 61 62 61 62 62 62 62 63 63 63 63 63 62 61 62 62 62 62 61 60 60 61 60 60 60 60 60 59 59 59 59 58 58 57 57 56 56 56 57 57 56 57 58 58 57 56 54 57
64 63 64 64 63 63 62 62 62 62 62 62 61 61 61 60 61 61 61 62 61 61 61 63 63 62 62 61 61 61 61 60 60 61 60 60 60 60 59 59 58 58 59 59 58 57 56 56 55 54 55 55 55 54 54 55 55 54 54 55 54 54 54
63 63 63 63 63 62 62 62 62 62 63 61 61 61 60 60 60 61 60 61 61 61 61 61 61 61 61 61 61 60 60 60 59 59 59 59 59 58 59 59 58 57 58 58 58 57 56 55 55 54 54 55 54 53 53 53 53 53 53 53 53 53 53
63 63 63 63 62 62 62 62 62 62 62 62 61 61 60 60 59 60 60 60 60 60 61 61 61 61 61 60 60 60 59 60 59 58 58 57 57 57 58 58 57 57 59 59 59 58 56 56 53 53 54 54 53 52 52 53 52 53 52 52 52 52 52
62 62 62 62 62 62 61 61 61 61 61 61 61 60 60 59 59 59 59 59 60 60 60 60 61 59 59 60 60 60 59 59 59 58 58 57 57 57 57 57 57 58 59 61 58 55 52 53 54 54 53 54 55 52 52 52 52 52 52 52 52 52 52
61 61 62 62 61 61 61 61 61 60 60 60 60 60 60 59 59 59 59 59 59 60 60 60 56 51 51 55 60 59 59 59 58 58 58 57 56 57 56 55 56 59 60 61 58 52 50 50 50 50 51 53 54 53 52 52 52 52 53 52 52 52 52
61 61 61 61 61 61 61 60 60 60 60 59 59 59 59 59 59 59 59 59 59 60 60 59 52 49 49 49 56 59 59 58 58 58 58 58 57 57 56 55 55 57 61 60 57 54 52 50 48 47 47 48 48 49 50 52 52 52 52 52 52 53 52
61 61 61 61 61 60 60 60 59 59 59 59 59 58 59 59 58 59 59 59 59 60 60 56 51 48 48 47 49 57 58 58 58 58 57 57 57 56 55 54 55 56 59 61 59 55 54 54 50 48 48 48 49 47 46 45 47 53 53 53 52 53 52
61 61 61 61 61 60 60 60 60 59 59 59 58 58 58 58 58 58 58 58 59 59 59 56 49 47 47 46 46 52 58 58 58 57 57 57 57 56 55 55 54 55 57 59 58 55 54 53 53 52 52 52 52 54 49 45 45 45 51 54 53 52 53
60 61 60 60 60 60 60 60 59 59 59 59 58 58 58 58 58 58 58 58 58 58 58 51 46 46 45 45 45 51 58 58 58 57 57 57 56 56 55 55 54 55 56 55 57 55 53 52 52 52 51 51 51 52 54 54 53 52 53 53 54 54 54
60 60 60 60 60 60 59 59 59 59 58 58 58 58 58 58 58 58 58 58 58 58 58 48 46 45 45 44 45 54 57 57 57 57 56 56 56 55 55 54 54 55 55 54 55 50 52 52 52 50 51 51 51 52 52 54 50 50 54 54 54 54 54
59 59 59 59 59 59 59 59 59 58 58 58 58 57 58 58 58 58 58 58 57 58 58 51 45 45 45 44 46 53 56 57 57 57 56 56 56 55 55 54 54 53 54 53 51 45 46 52 50 50 50 50 51 51 52 53 47 43 44 45 44 44 44
58 59 59 59 59 59 59 59 59 58 59 58 57 57 57 57 57 57 57 57 58 58 58 55 46 45 44 43 50 54 56 56 56 56 56 56 56 55 55 56 56 53 53 53 47 44 44 50 50 50 50 50 50 50 51 51 51 51 43 42 41 41 41
58 58 58 59 59 58 58 59 59 58 59 58 58 58 57 57 57 57 57 58 58 58 58 56 47 45 44 43 49 54 55 55 55 55 55 54 54 54 54 56 57 54 53 52 46 44 43 50 50 50 50 50 50 50 51 51 50 50 50 50 51 48 48
58 58 58 58 58 58 58 57 57 58 58 58 58 57 57 57 57 57 57 57 57 58 58 57 53 45 45 43 45 54 55 55 54 54 54 54 53 53 53 53 55 48 46 45 44 44 42 44 50 51 51 50 50 50 51 50 51 51 50 52 52 52 53
57 57 58 58 57 57 57 57 57 57 57 57 56 56 56 56 56 56 56 56 56 57 57 57 55 44 44 43 43 49 54 54 54 54 53 53 53 52 52 52 53 50 44 43 43 43 42 42 47 51 51 50 50 51 49 50 53 52 51 51 51 51 51
57 57 57 57 56 56 56 57 57 57 56 56 56 56 55 55 56 56 55 55 56 57 57 57 57 46 44 43 42 45 52 53 53 54 53 52 53 52 52 51 52 50 45 43 42 42 42 42 43 52 51 45 44 43 50 51 51 52 51 51 50 50 50
56 56 56 56 56 56 55 56 56 56 56 55 55 55 55 55 55 56 55 55 55 56 56 57 52 54 44 42 42 42 45 49 46 55 53 52 52 52 52 52 53 50 44 43 42 41 41 41 44 49 45 43 42 42 47 50 49 50 50 50 49 49 48
55 55 55 55 55 55 54 55 55 56 55 55 55 55 54 55 55 55 56 56 55 55 55 56 52 49 50 41 42 41 42 43 45 52 53 53 52 52 52 52 51 45 43 43 41 41 41 42 45 43 43 42 41 43 50 49 48 49 48 48 48 49 48